QPF
0.01 0.02 0.04 0.06 0.04 0.05 0.06 0.06 0.06 0.09 0.11 0.12 0.12 0.09 0.08 0.09 0.07 0.05 0.07 0.07 0.05 0.05 0.07 0.06 0.07 0.07 0.07 0.08 0.08 0.06 0.07 0.07 0.07 0.08 0.08 0.05 0.03 0.03 0.03 0.03 0.04 0.03 0.02
0.01 0.02 0.03 0.03 0.02 0.04 0.06 0.05 0.08 0.10 0.10 0.09 0.10 0.10 0.09 0.10 0.08 0.08 0.07 0.07 0.08 0.08 0.07 0.08 0.09 0.08 0.08 0.08 0.09 0.08 0.07 0.07 0.08 0.09 0.09 0.06 0.06 0.05 0.01 0.02 0.04 0.03 0.04
0.01 0.02 0.02 0.03 0.02 0.03 0.05 0.06 0.08 0.11 0.10 0.10 0.09 0.09 0.10 0.13 0.10 0.07 0.08 0.09 0.11 0.11 0.09 0.09 0.10 0.09 0.07 0.08 0.09 0.08 0.09 0.09 0.09 0.08 0.08 0.06 0.07 0.07 0.03 0.02 0.02 0.03 0.07
0.01 0.01 0.01 0.02 0.02 0.03 0.04 0.04 0.05 0.06 0.07 0.08 0.08 0.10 0.09 0.10 0.09 0.09 0.10 0.10 0.11 0.13 0.12 0.10 0.11 0.10 0.08 0.09 0.08 0.07 0.09 0.10 0.08 0.07 0.06 0.05 0.05 0.06 0.07 0.05 0.02 0.04 0.06
0.01 0.01 0.01 0.01 0.01 0.02 0.02 0.03 0.04 0.04 0.06 0.07 0.08 0.09 0.09 0.10 0.12 0.15 0.16 0.16 0.13 0.13 0.13 0.11 0.12 0.12 0.10 0.10 0.09 0.10 0.10 0.09 0.09 0.07 0.06 0.06 0.06 0.05 0.07 0.08 0.05 0.04 0.03
0.00 0.01 0.01 0.00 0.01 0.02 0.02 0.02 0.03 0.04 0.04 0.06 0.10 0.13 0.12 0.11 0.12 0.15 0.16 0.17 0.14 0.11 0.10 0.11 0.11 0.11 0.10 0.11 0.11 0.12 0.11 0.11 0.10 0.08 0.05 0.07 0.07 0.06 0.07 0.07 0.06 0.07 0.04
0.00 0.00 0.00 0.00 0.01 0.01 0.02 0.01 0.02 0.04 0.05 0.06 0.07 0.11 0.11 0.11 0.09 0.12 0.13 0.13 0.11 0.10 0.09 0.09 0.11 0.10 0.11 0.10 0.10 0.11 0.11 0.11 0.11 0.10 0.06 0.05 0.05 0.04 0.05 0.06 0.06 0.07 0.05
0.00 0.00 0.00 0.01 0.01 0.01 0.01 0.01 0.02 0.03 0.04 0.05 0.05 0.08 0.08 0.07 0.08 0.09 0.10 0.10 0.09 0.08 0.09 0.10 0.09 0.08 0.09 0.08 0.10 0.08 0.08 0.09 0.11 0.08 0.09 0.09 0.06 0.04 0.05 0.06 0.08 0.07 0.07
0.00 0.00 0.01 0.01 0.01 0.01 0.01 0.02 0.02 0.03 0.03 0.05 0.05 0.06 0.06 0.06 0.08 0.07 0.07 0.07 0.08 0.08 0.06 0.07 0.08 0.08 0.09 0.10 0.12 0.11 0.09 0.10 0.10 0.08 0.09 0.08 0.08 0.08 0.06 0.05 0.06 0.08 0.09
0.00 0.00 0.01 0.01 0.01 0.01 0.01 0.02 0.03 0.05 0.05 0.05 0.04 0.04 0.05 0.05 0.06 0.07 0.06 0.06 0.05 0.06 0.07 0.06 0.07 0.07 0.06 0.06 0.07 0.07 0.07 0.07 0.08 0.09 0.10 0.08 0.08 0.08 0.07 0.06 0.06 0.08 0.10
0.00 0.00 0.01 0.02 0.01 0.01 0.01 0.02 0.03 0.04 0.05 0.04 0.03 0.03 0.04 0.05 0.07 0.06 0.06 0.07 0.06 0.06 0.07 0.07 0.08 0.07 0.07 0.06 0.06 0.06 0.07 0.07 0.07 0.08 0.07 0.07 0.07 0.07 0.07 0.06 0.07 0.08 0.10
0.00 0.00 0.02 0.03 0.01 0.01 0.01 0.01 0.02 0.03 0.05 0.04 0.02 0.03 0.03 0.05 0.06 0.06 0.07 0.07 0.06 0.05 0.05 0.05 0.06 0.06 0.06 0.07 0.06 0.06 0.06 0.06 0.06 0.06 0.06 0.06 0.06 0.08 0.08 0.08 0.08 0.09 0.11
0.00 0.00 0.01 0.01 0.00 0.00 0.01 0.01 0.01 0.01 0.03 0.03 0.02 0.03 0.03 0.04 0.04 0.05 0.04 0.03 0.03 0.03 0.03 0.03 0.04 0.06 0.07 0.08 0.06 0.06 0.06 0.07 0.06 0.06 0.07 0.08 0.08 0.09 0.10 0.11 0.11 0.11 0.10
0.00 0.00 0.00 0.00 0.00 0.00 0.00 0.01 0.01 0.01 0.01 0.01 0.02 0.02 0.02 0.03 0.04 0.04 0.03 0.03 0.03 0.03 0.04 0.05 0.04 0.05 0.07 0.08 0.08 0.07 0.08 0.09 0.08 0.08 0.07 0.08 0.07 0.07 0.08 0.08 0.09 0.09 0.09
0.00 0.00 0.00 0.00 0.00 0.00 0.00 0.01 0.01 0.00 0.01 0.01 0.01 0.02 0.02 0.02 0.03 0.02 0.02 0.03 0.05 0.05 0.06 0.06 0.05 0.05 0.06 0.07 0.08 0.08 0.09 0.09 0.10 0.09 0.08 0.08 0.07 0.07 0.07 0.05 0.06 0.06 0.08
0.00 0.00 0.00 0.00 0.00 0.00 0.01 0.01 0.01 0.01 0.01 0.01 0.01 0.01 0.01 0.01 0.02 0.02 0.02 0.03 0.04 0.06 0.06 0.05 0.05 0.06 0.08 0.10 0.11 0.10 0.09 0.09 0.09 0.09 0.07 0.06 0.06 0.07 0.06 0.06 0.06 0.07 0.08
0.00 0.00 0.00 0.00 0.00 0.00 0.00 0.00 0.00 0.01 0.01 0.01 0.01 0.01 0.01 0.02 0.02 0.01 0.01 0.02 0.03 0.03 0.04 0.04 0.05 0.07 0.10 0.12 0.11 0.12 0.12 0.12 0.10 0.09 0.07 0.07 0.07 0.07 0.06 0.08 0.10 0.12 0.13
0.00 0.00 0.00 0.00 0.00 0.00 0.00 0.00 0.00 0.01 0.01 0.01 0.01 0.02 0.01 0.02 0.01 0.01 0.01 0.02 0.03 0.04 0.04 0.04 0.04 0.04 0.07 0.09 0.09 0.09 0.09 0.10 0.10 0.09 0.08 0.08 0.08 0.08 0.07 0.08 0.10 0.12 0.14
0.00 0.00 0.00 0.00 0.00 0.00 0.00 0.00 0.00 0.01 0.01 0.02 0.02 0.02 0.02 0.02 0.03 0.03 0.03 0.03 0.04 0.04 0.05 0.06 0.05 0.03 0.03 0.04 0.05 0.05 0.05 0.05 0.06 0.07 0.07 0.07 0.08 0.08 0.07 0.07 0.09 0.10 0.11
0.00 0.00 0.00 0.00 0.00 0.00 0.00 0.01 0.01 0.02 0.02 0.02 0.03 0.04 0.04 0.04 0.05 0.03 0.03 0.03 0.04 0.04 0.04 0.04 0.04 0.04 0.05 0.04 0.04 0.04 0.05 0.06 0.05 0.05 0.05 0.06 0.07 0.09 0.09 0.09 0.10 0.10 0.10
0.00 0.00 0.00 0.01 0.00 0.00 0.00 0.01 0.02 0.02 0.03 0.03 0.03 0.03 0.03 0.03 0.04 0.03 0.03 0.04 0.04 0.03 0.03 0.03 0.04 0.04 0.05 0.04 0.04 0.04 0.04 0.05 0.05 0.05 0.05 0.06 0.06 0.07 0.07 0.08 0.08 0.07 0.06
0.01 0.01 0.01 0.01 0.01 0.01 0.01 0.02 0.02 0.02 0.03 0.03 0.02 0.01 0.02 0.02 0.02 0.03 0.03 0.03 0.03 0.04 0.04 0.04 0.05 0.04 0.04 0.04 0.03 0.03 0.02 0.02 0.02 0.03 0.03 0.03 0.05 0.06 0.07 0.07 0.07 0.07 0.05
0.03 0.03 0.03 0.02 0.02 0.02 0.01 0.01 0.01 0.02 0.02 0.02 0.02 0.02 0.02 0.02 0.02 0.02 0.02 0.03 0.03 0.04 0.03 0.02 0.03 0.02 0.02 0.02 0.03 0.02 0.02 0.02 0.02 0.02 0.03 0.03 0.04 0.04 0.05 0.07 0.07 0.06 0.05
0.05 0.05 0.04 0.03 0.02 0.02 0.02 0.02 0.01 0.02 0.02 0.02 0.02 0.03 0.03 0.02 0.02 0.02 0.03 0.04 0.04 0.04 0.03 0.03 0.03 0.03 0.03 0.03 0.03 0.03 0.03 0.03 0.03 0.03 0.04 0.04 0.04 0.04 0.04 0.03 0.03 0.02 0.02
0.04 0.04 0.03 0.03 0.02 0.02 0.01 0.01 0.01 0.02 0.02 0.01 0.01 0.01 0.02 0.02 0.03 0.04 0.04 0.05 0.05 0.05 0.06 0.07 0.06 0.06 0.06 0.06 0.05 0.04 0.04 0.03 0.03 0.03 0.02 0.02 0.02 0.02 0.01 0.01 0.01 0.01 0.01
0.03 0.03 0.04 0.03 0.03 0.02 0.01 0.01 0.01 0.01 0.01 0.01 0.01 0.01 0.01 0.01 0.02 0.03 0.04 0.06 0.06 0.07 0.08 0.09 0.09 0.09 0.08 0.08 0.06 0.06 0.05 0.04 0.02 0.02 0.01 0.01 0.01 0.01 0.01 0.01 0.01 0.01 0.01
MSLP
1012.17 1012.61 1013.03 1013.44 1013.84 1014.26 1014.71 1015.18 1015.68 1016.18 1016.66 1017.12 1017.52 1017.85 1018.12 1018.34 1018.50 1018.63 1018.73 1018.82 1018.90 1018.97 1019.04 1019.11 1019.19 1019.28 1019.40 1019.54 1019.70 1019.88 1020.06 1020.22 1020.36 1020.47 1020.53 1020.54 1020.52 1020.48 1020.43 1020.40 1020.40 1020.45 1020.57
1011.86 1012.31 1012.75 1013.17 1013.59 1014.01 1014.45 1014.92 1015.41 1015.93 1016.45 1016.95 1017.41 1017.80 1018.12 1018.36 1018.52 1018.63 1018.69 1018.73 1018.76 1018.80 1018.85 1018.92 1019.02 1019.15 1019.30 1019.47 1019.66 1019.85 1020.04 1020.21 1020.35 1020.44 1020.50 1020.50 1020.46 1020.39 1020.30 1020.21 1020.13 1020.10 1020.13
1011.56 1012.02 1012.49 1012.93 1013.36 1013.77 1014.20 1014.64 1015.13 1015.65 1016.19 1016.72 1017.23 1017.67 1018.03 1018.29 1018.47 1018.56 1018.59 1018.59 1018.58 1018.59 1018.62 1018.70 1018.82 1018.98 1019.16 1019.37 1019.58 1019.78 1019.96 1020.12 1020.25 1020.34 1020.38 1020.37 1020.32 1020.23 1020.11 1019.98 1019.85 1019.75 1019.69
1011.30 1011.79 1012.29 1012.76 1013.19 1013.59 1013.99 1014.40 1014.86 1015.36 1015.90 1016.45 1016.98 1017.47 1017.86 1018.16 1018.34 1018.43 1018.44 1018.41 1018.38 1018.37 1018.40 1018.48 1018.62 1018.81 1019.02 1019.24 1019.46 1019.66 1019.84 1019.98 1020.08 1020.15 1020.18 1020.18 1020.13 1020.04 1019.91 1019.76 1019.60 1019.45 1019.32
1011.11 1011.63 1012.16 1012.66 1013.10 1013.48 1013.85 1014.22 1014.63 1015.09 1015.60 1016.15 1016.70 1017.21 1017.64 1017.96 1018.16 1018.25 1018.27 1018.23 1018.18 1018.16 1018.20 1018.29 1018.45 1018.65 1018.88 1019.12 1019.33 1019.52 1019.68 1019.79 1019.87 1019.92 1019.95 1019.94 1019.91 1019.84 1019.74 1019.60 1019.43 1019.25 1019.09
1011.00 1011.56 1012.13 1012.65 1013.10 1013.47 1013.79 1014.10 1014.45 1014.85 1015.33 1015.85 1016.39 1016.91 1017.36 1017.70 1017.93 1018.04 1018.07 1018.04 1018.00 1017.98 1018.02 1018.12 1018.29 1018.51 1018.74 1018.98 1019.18 1019.35 1019.48 1019.56 1019.62 1019.65 1019.68 1019.69 1019.68 1019.66 1019.60 1019.50 1019.37 1019.20 1019.03
1010.97 1011.58 1012.19 1012.73 1013.18 1013.53 1013.80 1014.06 1014.33 1014.66 1015.07 1015.55 1016.07 1016.58 1017.04 1017.40 1017.65 1017.79 1017.84 1017.82 1017.80 1017.79 1017.84 1017.96 1018.13 1018.35 1018.58 1018.80 1018.99 1019.13 1019.22 1019.28 1019.31 1019.34 1019.37 1019.42 1019.46 1019.50 1019.51 1019.48 1019.41 1019.28 1019.13
1011.02 1011.67 1012.31 1012.87 1013.32 1013.64 1013.87 1014.05 1014.25 1014.51 1014.85 1015.27 1015.74 1016.23 1016.68 1017.06 1017.32 1017.49 1017.56 1017.57 1017.56 1017.57 1017.63 1017.76 1017.93 1018.14 1018.36 1018.57 1018.73 1018.84 1018.91 1018.94 1018.96 1018.98 1019.04 1019.12 1019.22 1019.34 1019.44 1019.50 1019.51 1019.46 1019.36
1011.13 1011.80 1012.46 1013.03 1013.46 1013.76 1013.94 1014.07 1014.19 1014.37 1014.64 1014.99 1015.41 1015.86 1016.30 1016.67 1016.94 1017.12 1017.21 1017.25 1017.27 1017.29 1017.37 1017.49 1017.67 1017.87 1018.08 1018.25 1018.39 1018.48 1018.52 1018.53 1018.54 1018.57 1018.65 1018.78 1018.95 1019.14 1019.33 1019.49 1019.59 1019.63 1019.60
1011.25 1011.93 1012.59 1013.15 1013.56 1013.83 1013.97 1014.05 1014.12 1014.23 1014.43 1014.72 1015.09 1015.49 1015.89 1016.24 1016.52 1016.70 1016.81 1016.87 1016.90 1016.95 1017.03 1017.16 1017.34 1017.53 1017.72 1017.87 1017.99 1018.05 1018.07 1018.07 1018.07 1018.12 1018.22 1018.38 1018.60 1018.87 1019.14 1019.39 1019.58 1019.71 1019.77
1011.36 1012.02 1012.65 1013.19 1013.57 1013.81 1013.93 1013.97 1014.00 1014.08 1014.22 1014.46 1014.77 1015.12 1015.48 1015.81 1016.06 1016.25 1016.36 1016.44 1016.49 1016.56 1016.66 1016.80 1016.96 1017.15 1017.32 1017.46 1017.55 1017.60 1017.60 1017.59 1017.59 1017.64 1017.75 1017.94 1018.19 1018.50 1018.83 1019.14 1019.41 1019.62 1019.75
1011.40 1012.02 1012.62 1013.11 1013.47 1013.68 1013.79 1013.82 1013.84 1013.89 1014.02 1014.22 1014.48 1014.79 1015.11 1015.39 1015.63 1015.80 1015.92 1016.00 1016.08 1016.17 1016.29 1016.44 1016.62 1016.80 1016.96 1017.09 1017.16 1017.19 1017.17 1017.15 1017.14 1017.18 1017.29 1017.48 1017.74 1018.06 1018.41 1018.75 1019.06 1019.32 1019.51
1011.36 1011.93 1012.46 1012.91 1013.24 1013.45 1013.56 1013.61 1013.65 1013.72 1013.84 1014.02 1014.26 1014.53 1014.80 1015.05 1015.25 1015.41 1015.53 1015.63 1015.73 1015.84 1015.99 1016.16 1016.36 1016.54 1016.70 1016.82 1016.88 1016.88 1016.85 1016.81 1016.78 1016.80 1016.89 1017.06 1017.30 1017.60 1017.93 1018.26 1018.57 1018.84 1019.07
1011.22 1011.73 1012.20 1012.61 1012.92 1013.14 1013.28 1013.37 1013.46 1013.57 1013.72 1013.91 1014.13 1014.37 1014.60 1014.81 1014.99 1015.13 1015.25 1015.37 1015.49 1015.64 1015.82 1016.03 1016.24 1016.44 1016.60 1016.71 1016.75 1016.74 1016.69 1016.62 1016.57 1016.56 1016.61 1016.74 1016.93 1017.18 1017.47 1017.76 1018.04 1018.30 1018.53
1010.99 1011.44 1011.87 1012.24 1012.55 1012.80 1013.00 1013.16 1013.32 1013.50 1013.69 1013.90 1014.12 1014.34 1014.54 1014.71 1014.86 1014.99 1015.12 1015.25 1015.40 1015.59 1015.81 1016.05 1016.29 1016.51 1016.67 1016.78 1016.81 1016.78 1016.71 1016.62 1016.54 1016.49 1016.51 1016.58 1016.72 1016.92 1017.14 1017.37 1017.60 1017.82 1018.04
1010.70 1011.11 1011.51 1011.87 1012.20 1012.50 1012.77 1013.03 1013.28 1013.53 1013.78 1014.02 1014.24 1014.44 1014.62 1014.76 1014.88 1015.00 1015.12 1015.27 1015.46 1015.69 1015.95 1016.23 1016.49 1016.72 1016.90 1017.00 1017.03 1016.99 1016.90 1016.79 1016.69 1016.62 1016.60 1016.64 1016.73 1016.87 1017.04 1017.21 1017.39 1017.56 1017.75
1010.39 1010.79 1011.18 1011.56 1011.93 1012.29 1012.65 1013.00 1013.35 1013.68 1013.99 1014.26 1014.49 1014.68 1014.82 1014.93 1015.02 1015.12 1015.24 1015.41 1015.63 1015.89 1016.18 1016.49 1016.78 1017.03 1017.22 1017.32 1017.35 1017.30 1017.21 1017.10 1017.00 1016.92 1016.89 1016.92 1016.99 1017.10 1017.23 1017.36 1017.50 1017.64 1017.79
1010.13 1010.54 1010.95 1011.36 1011.79 1012.23 1012.67 1013.11 1013.54 1013.94 1014.30 1014.59 1014.82 1014.99 1015.10 1015.17 1015.23 1015.31 1015.43 1015.60 1015.83 1016.12 1016.44 1016.78 1017.09 1017.35 1017.55 1017.66 1017.70 1017.67 1017.59 1017.50 1017.42 1017.37 1017.37 1017.41 1017.50 1017.61 1017.73 1017.85 1017.97 1018.09 1018.22
1009.98 1010.42 1010.86 1011.33 1011.81 1012.31 1012.83 1013.34 1013.84 1014.28 1014.66 1014.97 1015.18 1015.32 1015.39 1015.42 1015.45 1015.50 1015.60 1015.77 1016.01 1016.31 1016.65 1017.00 1017.33 1017.61 1017.83 1017.96 1018.02 1018.02 1017.98 1017.94 1017.91 1017.92 1017.97 1018.07 1018.20 1018.34 1018.49 1018.63 1018.76 1018.88 1019.00
1010.00 1010.48 1010.97 1011.47 1012.00 1012.55 1013.12 1013.67 1014.20 1014.66 1015.04 1015.33 1015.52 1015.61 1015.64 1015.63 1015.62 1015.65 1015.73 1015.89 1016.12 1016.43 1016.77 1017.13 1017.48 1017.77 1018.01 1018.17 1018.27 1018.33 1018.35 1018.38 1018.43 1018.52 1018.65 1018.82 1019.02 1019.22 1019.42 1019.60 1019.75 1019.88 1020.00
1010.23 1010.75 1011.27 1011.80 1012.35 1012.92 1013.50 1014.06 1014.58 1015.03 1015.38 1015.64 1015.78 1015.83 1015.82 1015.77 1015.73 1015.72 1015.79 1015.93 1016.16 1016.46 1016.81 1017.17 1017.53 1017.84 1018.11 1018.32 1018.47 1018.59 1018.70 1018.81 1018.96 1019.13 1019.35 1019.60 1019.87 1020.13 1020.38 1020.60 1020.78 1020.93 1021.06
1010.69 1011.23 1011.76 1012.29 1012.84 1013.40 1013.95 1014.48 1014.95 1015.36 1015.66 1015.86 1015.96 1015.97 1015.92 1015.84 1015.77 1015.75 1015.80 1015.94 1016.16 1016.45 1016.80 1017.17 1017.53 1017.88 1018.18 1018.43 1018.65 1018.85 1019.04 1019.24 1019.48 1019.74 1020.03 1020.35 1020.67 1020.98 1021.26 1021.50 1021.69 1021.85 1021.99
1011.34 1011.88 1012.40 1012.92 1013.43 1013.94 1014.43 1014.89 1015.30 1015.63 1015.87 1016.02 1016.07 1016.04 1015.97 1015.87 1015.80 1015.78 1015.83 1015.96 1016.18 1016.48 1016.83 1017.20 1017.59 1017.95 1018.29 1018.60 1018.88 1019.15 1019.41 1019.69 1020.00 1020.32 1020.66 1021.01 1021.36 1021.68 1021.95 1022.18 1022.37 1022.52 1022.64
1012.13 1012.66 1013.15 1013.62 1014.07 1014.50 1014.92 1015.29 1015.61 1015.86 1016.04 1016.12 1016.14 1016.09 1016.01 1015.93 1015.87 1015.86 1015.93 1016.08 1016.32 1016.62 1016.98 1017.37 1017.76 1018.15 1018.52 1018.87 1019.20 1019.52 1019.85 1020.18 1020.52 1020.87 1021.23 1021.57 1021.89 1022.18 1022.42 1022.61 1022.75 1022.86 1022.96
1012.98 1013.47 1013.92 1014.33 1014.71 1015.06 1015.38 1015.66 1015.89 1016.07 1016.17 1016.22 1016.21 1016.16 1016.10 1016.05 1016.03 1016.07 1016.19 1016.37 1016.63 1016.96 1017.32 1017.72 1018.13 1018.53 1018.92 1019.29 1019.64 1020.00 1020.34 1020.69 1021.04 1021.38 1021.71 1022.01 1022.27 1022.49 1022.65 1022.77 1022.85 1022.90 1022.95
1013.77 1014.23 1014.64 1014.99 1015.31 1015.58 1015.81 1016.00 1016.15 1016.25 1016.31 1016.33 1016.32 1016.30 1016.28 1016.28 1016.33 1016.44 1016.61 1016.85 1017.15 1017.50 1017.88 1018.28 1018.69 1019.09 1019.47 1019.84 1020.19 1020.54 1020.88 1021.20 1021.52 1021.82 1022.08 1022.32 1022.50 1022.63 1022.70 1022.74 1022.74 1022.73 1022.73
Thickness
5812 5807 5801 5796 5790 5783 5778 5773 5768 5763 5759 5756 5752 5749 5748 5748 5748 5747 5746 5745 5744 5744 5742 5744 5743 5742 5742 5741 5742 5741 5739 5739 5740 5738 5737 5740 5742 5742 5740 5740 5739 5738 5736
5809 5804 5800 5795 5790 5784 5779 5774 5770 5766 5762 5759 5755 5752 5751 5750 5749 5747 5746 5744 5744 5744 5744 5742 5742 5742 5741 5740 5740 5738 5738 5739 5739 5737 5733 5732 5735 5738 5743 5741 5738 5738 5737
5811 5804 5799 5795 5791 5785 5781 5778 5773 5769 5764 5761 5756 5753 5750 5748 5748 5747 5746 5744 5744 5743 5743 5743 5742 5742 5742 5740 5739 5739 5737 5736 5738 5739 5735 5730 5728 5734 5739 5739 5739 5737 5735
5814 5807 5801 5795 5792 5789 5785 5780 5775 5770 5766 5762 5758 5754 5751 5748 5749 5749 5747 5745 5744 5743 5743 5742 5742 5741 5742 5740 5740 5741 5739 5735 5735 5736 5737 5737 5736 5731 5730 5734 5737 5735 5732
5816 5808 5803 5798 5794 5790 5786 5781 5776 5771 5767 5763 5760 5755 5753 5752 5751 5749 5747 5745 5745 5743 5743 5743 5742 5741 5741 5741 5740 5739 5738 5737 5735 5736 5736 5735 5734 5733 5729 5725 5728 5730 5731
5816 5809 5805 5799 5793 5789 5785 5781 5776 5770 5767 5764 5761 5756 5754 5751 5749 5747 5746 5745 5745 5744 5743 5743 5742 5741 5742 5741 5739 5738 5737 5737 5736 5736 5737 5735 5733 5732 5730 5726 5724 5724 5726
5814 5807 5801 5796 5791 5787 5784 5780 5775 5770 5768 5764 5761 5758 5755 5752 5749 5748 5746 5745 5745 5744 5744 5744 5742 5742 5741 5740 5739 5738 5738 5737 5734 5733 5735 5736 5735 5735 5732 5728 5725 5722 5722
5814 5807 5802 5797 5792 5788 5784 5780 5775 5771 5768 5764 5761 5758 5755 5753 5752 5749 5748 5746 5745 5745 5744 5742 5741 5740 5740 5739 5738 5738 5736 5735 5734 5734 5732 5732 5733 5734 5732 5728 5723 5718 5716
5811 5806 5802 5797 5791 5787 5783 5780 5775 5770 5767 5764 5760 5756 5754 5751 5750 5749 5748 5747 5745 5744 5742 5740 5739 5739 5738 5737 5736 5735 5734 5733 5732 5732 5730 5729 5730 5729 5729 5727 5724 5717 5709
5809 5805 5801 5796 5791 5787 5783 5779 5775 5770 5767 5763 5759 5756 5753 5751 5749 5748 5745 5744 5743 5742 5740 5738 5737 5737 5736 5735 5734 5733 5731 5730 5728 5727 5726 5725 5726 5726 5725 5723 5721 5718 5710
5808 5803 5799 5795 5791 5786 5782 5777 5773 5769 5765 5761 5758 5754 5752 5750 5747 5745 5743 5742 5740 5738 5737 5736 5735 5734 5733 5732 5731 5730 5728 5726 5724 5724 5723 5721 5720 5720 5719 5718 5716 5712 5707
5809 5803 5798 5792 5787 5783 5779 5776 5772 5768 5764 5760 5756 5752 5750 5747 5745 5743 5741 5739 5737 5736 5735 5733 5732 5731 5730 5729 5728 5726 5724 5722 5720 5720 5718 5717 5716 5713 5712 5712 5710 5707 5703
5805 5800 5795 5790 5785 5781 5777 5774 5771 5766 5763 5759 5754 5750 5747 5744 5742 5740 5738 5736 5734 5732 5731 5730 5728 5727 5726 5725 5724 5722 5720 5718 5717 5715 5712 5711 5710 5707 5707 5705 5704 5701 5698
5801 5797 5792 5787 5782 5778 5774 5771 5768 5764 5760 5756 5751 5747 5744 5741 5739 5737 5735 5733 5731 5729 5727 5726 5725 5724 5723 5721 5720 5718 5715 5713 5711 5709 5707 5705 5704 5703 5701 5700 5697 5694 5690
5798 5794 5789 5784 5779 5775 5771 5768 5764 5761 5758 5753 5748 5744 5742 5739 5736 5733 5731 5728 5727 5725 5723 5722 5720 5719 5718 5717 5715 5712 5710 5707 5705 5702 5700 5698 5696 5694 5693 5694 5691 5688 5683
5797 5794 5789 5783 5777 5773 5769 5765 5761 5758 5754 5749 5745 5741 5738 5735 5732 5730 5727 5724 5722 5720 5718 5716 5715 5714 5712 5708 5706 5705 5704 5701 5698 5695 5692 5689 5687 5684 5682 5680 5679 5677 5675
5798 5793 5788 5782 5777 5772 5768 5762 5758 5755 5750 5746 5742 5738 5735 5732 5728 5726 5723 5719 5716 5714 5712 5711 5709 5707 5703 5700 5699 5697 5696 5694 5690 5687 5684 5681 5678 5676 5674 5670 5667 5664 5661
5797 5792 5787 5781 5776 5772 5766 5761 5756 5751 5746 5741 5738 5734 5731 5727 5723 5721 5717 5714 5712 5709 5706 5704 5702 5699 5695 5692 5690 5689 5688 5686 5682 5679 5676 5673 5670 5667 5665 5662 5657 5652 5648
5797 5791 5787 5781 5774 5769 5764 5758 5752 5747 5742 5737 5733 5730 5727 5723 5719 5715 5712 5709 5706 5703 5699 5696 5694 5691 5686 5683 5682 5681 5680 5676 5673 5670 5667 5664 5661 5656 5655 5652 5647 5642 5636
5791 5786 5782 5776 5768 5763 5760 5753 5747 5742 5737 5734 5730 5726 5722 5718 5714 5710 5706 5703 5700 5696 5693 5689 5686 5683 5679 5674 5673 5673 5673 5668 5664 5659 5655 5652 5649 5645 5644 5643 5639 5633 5628
5783 5779 5773 5767 5761 5757 5753 5747 5742 5737 5733 5730 5726 5721 5717 5713 5709 5705 5701 5697 5693 5689 5685 5681 5678 5674 5670 5666 5664 5664 5665 5662 5658 5652 5646 5640 5636 5634 5633 5632 5629 5624 5620
5772 5769 5763 5757 5753 5750 5746 5740 5734 5731 5727 5723 5719 5715 5711 5707 5703 5698 5694 5690 5687 5682 5678 5675 5670 5666 5662 5658 5655 5654 5653 5652 5648 5643 5637 5630 5625 5623 5620 5618 5614 5611 5610
5761 5759 5754 5747 5743 5741 5738 5733 5728 5724 5720 5715 5711 5706 5703 5700 5695 5691 5687 5683 5680 5678 5674 5670 5666 5660 5655 5648 5645 5642 5640 5638 5636 5631 5624 5618 5614 5611 5608 5604 5602 5601 5600
5750 5748 5744 5738 5733 5731 5729 5725 5721 5717 5713 5708 5703 5699 5695 5691 5686 5683 5680 5678 5674 5671 5667 5664 5660 5654 5648 5643 5638 5634 5629 5626 5623 5619 5611 5607 5604 5602 5597 5594 5593 5592 5589
5739 5737 5733 5728 5723 5721 5718 5716 5713 5709 5704 5700 5695 5692 5689 5684 5677 5672 5667 5666 5662 5661 5659 5657 5653 5649 5643 5635 5631 5629 5624 5621 5616 5610 5606 5602 5598 5595 5591 5587 5584 5580 5577
5728 5725 5722 5719 5715 5712 5709 5706 5704 5701 5697 5692 5688 5685 5681 5675 5669 5663 5655 5648 5647 5645 5644 5642 5641 5635 5630 5623 5619 5615 5611 5607 5604 5603 5601 5596 5592 5589 5584 5580 5575 5571 5567